Weather Roundup
Issued by NWS Springfield, MO

Home | Current Version | Previous Version | Text Only | Print | Product List | Glossary On
Versions: 1 2 3 4 5 6 7 8 9 10 11 12 13 14 15 16 17 18 19 20 21 22 23 24 25 26 27 28 29 30 31 32 33 34 35 36 37 38 39 40 41 42 43 44 45 46 47 48 49 50
000
NZUS99 KSGF 021707
HRRSGF

HOURLY WEATHER
NATIONAL WEATHER SERVICE SPRINGFIELD MO
1200 PM CDT TUE JUN 02 2015

......SGF CWA......

CITY           SKY/WX    TMP DP  RH WIND       PRES   REMARKS
SPRINGFIELD    CLOUDY    68  60  75 S9        30.09S
JOPLIN         PTSUNNY   75  64  68 SE3       30.06F
WEST PLAINS    CLOUDY    65  55  70 E6        30.12F
ROLLA          CLOUDY    62  56  80 SE6       30.11S
OSAGE BEACH    CLOUDY    66  54  63 SE5       30.12S
BRANSON        CLOUDY    64  61  88 CALM      30.11S

......SURROUNDING SGF CWA......

CITY           SKY/WX    TMP DP  RH WIND       PRES   REMARKS
CHANUTE        MOSUNNY   74  65  73 SE8       30.03F
PARSONS        MOSUNNY   76  66  71 VRB5      30.05S
COFFEYVILLE    PTSUNNY   75  65  70 S8        30.03S
EMPORIA        PTSUNNY   72  62  71 SE12G18   30.02S
GROVE OK       MOSUNNY   79  66  65 S6        30.05F
ROGERS AR      CLOUDY    76  64  66 S6        30.08F
SILOAM SPRINGS PTSUNNY   75  63  64 S6        30.08F
HARRISON AR    PTSUNNY   68  62  81 E7        30.10F
NEAR YELLVILLE CLOUDY    66  59  77 E5        30.10S

......KANSAS AND MISSOURI......

CITY           SKY/WX    TMP DP  RH WIND       PRES   REMARKS
KANSAS CTY INT PTSUNNY   68  59  73 SE10      30.06S
DOWNTOWN KC    CLOUDY    68  57  68 SE10      30.05F
COLUMBIA       CLOUDY    67  56  67 SE6       30.12S
SEDALIA        CLOUDY    68  56  65 SE9       30.11F
ST JOSEPH      PTSUNNY   69  58  67 S10       30.05S
ST LOUIS       PTSUNNY   71  54  54 E12       30.12F
SPIRIT OF STL  PTSUNNY   68  56  65 E5        30.10F
KIRKSVILLE     CLOUDY    66  56  70 SE12      30.12S
WICHITA        MOSUNNY   80  63  55 S14G25    29.96F
TOPEKA         PTSUNNY   70  60  70 SE15      30.03F
OLATHE         MOSUNNY   68  59  73 SE9       30.06S

......TENNESSEE......

CITY           SKY/WX    TMP DP  RH WIND       PRES   REMARKS
MEMPHIS        CLOUDY    71  57  61 N9        30.08F
NASHVILLE      CLOUDY    66  59  78 N8        30.10F

......ARKANSAS.......

CITY           SKY/WX    TMP DP  RH WIND       PRES   REMARKS
FAYETTEVILLE   CLOUDY    73  65  75 SW5       30.07F
FT SMITH       PTSUNNY   77  65  66 NE5       30.05F
LITTLE ROCK    CLOUDY    74  61  63 CALM      30.09F

......OKLAHOMA.......

CITY           SKY/WX    TMP DP  RH WIND       PRES   REMARKS
TULSA          PTSUNNY   80  65  59 S10       30.01F
PONCA CITY     SUNNY     82  65  56 S17G24    29.97F
MCALESTER      SUNNY     80  65  59 VRB6G17   30.04F
OKLAHOMA CITY  PTSUNNY   82  65  56 S13G22    30.00S

......IOWA............

CITY           SKY/WX    TMP DP  RH WIND       PRES   REMARKS
DES MOINES     CLOUDY    66  54  65 SE18      30.07F
QUAD CITIES    MOSUNNY   69  50  50 S3        30.12F

......ILLINOIS........

CITY           SKY/WX    TMP DP  RH WIND       PRES   REMARKS
QUINCY         CLOUDY    68  52  56 SE9       30.12F
CHICAGO        MOSUNNY   68  45  43 SE10      30.16F




USA.gov is the U.S. government's official web portal to all federal, state and local government web resources and services.